User: anonymous   Login
Location: Mentone
(34.5413°N, 85.5351°W)
Time: 23:00:20
(UTC-05:00)
Language:

Centaur AC-72 - Orbit

View from above orbital plane
View from above orbital plane
View from above satellite
View from above satellite

Ground track
Ground track

The orbit data is extracted from the following two-line orbital elements,

1 21907U 92013B   16150.77109571 -.00000025 +00000-0 +00000-0 0  9992
2 21907 019.6316 031.4435 6950024 289.1007 019.6118 02.25604639199563
Epoch (UTC): 29 May 2016 18:30:22
Eccentricity: 0.6950024
inclination: 19.6316°
perigee height: 1111 km
apogee height: 35245 km
right ascension of ascending node: 31.4435°
argument of perigee: 289.1007°
revolutions per day: 2.25604639
mean anomaly at epoch: 19.6118°
orbit number at epoch: 19956

The dashed part of the orbit path shows where the satellite is in the earth's shadow,  

DLR